Regional Weather Roundup
Issued by NWS

Home | Current Version | Previous Version | Graphics & Text | Print | Product List | Glossary On
Versions: 1 2 3 4 5 6 7 8 9 10 11 12 13 14 15 16 17 18 19 20 21 22 23 24 25 26 27 28 29 30 31 32 33 34 35 36 37 38 39 40 41 42 43 44 45 46 47 48 49 50
000
ASUS45 KSLC 220010
RWRUT

UTAH REGIONAL WEATHER ROUNDUP
NATIONAL WEATHER SERVICE SALT LAKE CITY UT
600 PM MDT MON JUL 21 2014

UTZ001>011-023>025-220100-

NORTHERN UTAH

CITY           SKY/WX    TMP DP  RH WIND       PRES   REMARKS
HILL AFB       SUNNY     91  39  16 N9        30.05F
LOGAN          NOT AVBL
OGDEN          SUNNY     92  35  13 S6        30.02F
PROVO AIRPORT  MOSUNNY   91  36  14 SW12      30.07F
SALT LAKE CITY PTSUNNY   95  24   8 S20       29.99F
VERNAL         SUNNY     92  32  12 W8        30.09F
WENDOVER       PTSUNNY   90  41  18 E6        30.00S
HEBER CITY     SUNNY     90  27  10 W10G18    30.15S
WEST JORDAN    SUNNY     93  46  20 SE16G24   30.05S

$$

UTZ012>022-026-027-220100-

SOUTHERN UTAH

CITY           SKY/WX    TMP DP  RH WIND       PRES   REMARKS
BRYCE CANYON   SUNNY     82  24  12 SW17      30.36F
CEDAR CITY     SUNNY     88  21   8 SW16G25   30.20F
MILFORD        SUNNY     91  20   7 SW20G35   30.13F
MOAB/CYNLANDS  SUNNY     97  20   6 SW13G18   30.04F HX  90
PRICE          SUNNY     92  21   7 S8G20     30.16S
ST GEORGE      CLEAR     99  37  12 SW10      30.00F HX  93

$$

REGIONAL REPORTS     COLORADO/ARIZONA

CITY           SKY/WX    TMP DP  RH WIND       PRES   REMARKS
CRAIG, CO      MOSUNNY   84  33  16 W39G55    30.21R
GRAND JUNCTION MOSUNNY   95  21   7 NW16      30.08S
RIFLE          MOSUNNY   93  28  10 W14G22    30.12F
MONTROSE       PTSUNNY   94  31  10 W10       30.18F
CORTEZ         SUNNY     89  30  12 W15       30.22F
PAGE, AZ       SUNNY     99  28   8 N6        30.07F HX  92
GRAND CANYON   SUNNY     84  31  14 SW12      30.32S
KINGMAN        NOT AVBL
FLAGSTAFF      SUNNY     82  35  18 SW5       30.34F

$$

REGIONAL REPORTS    NEVADA/IDAHO/WYOMING

CITY           SKY/WX    TMP DP  RH WIND       PRES   REMARKS
LAS VEGAS, NV  MOSUNNY  104  29   7 S15G21    29.88F HX  97
ELY            MOSUNNY   85  29  13 S15G28    30.18F
ELKO           MOSUNNY   85  43  22 W15       30.08F
POCATELLO, ID  PTSUNNY   79  56  45 S5        30.07S
BURLEY         MOSUNNY   81  52  36 W10       30.05R
EVANSTON, WY   SUNNY     82  33  17 SW17G29   30.25F
ROCK SPRINGS   SUNNY     85  30  13 W7        30.20F

$$



USA.gov is the U.S. government's official web portal to all federal, state and local government web resources and services.